{"data":{"norad_id":62960,"intl_designator":"2025-029N","name":"STARLINK-32877","alt_names":[],"object_type":"PAYLOAD","status":"ACTIVE","operator":null,"country":"US","launch_date":"2025-02-11","launch_site_code":"AFWTR","launch_vehicle":null,"mission":null,"orbit_class":"UNKNOWN","rcs_meters":null,"size_class":null,"mass_kg":null,"dimensions":null,"purposes":["comms"],"wikipedia_slug":null,"has_3d_model":false,"image_url":null,"decayed_at":null,"tle_current":{"epoch":"2026-05-24T15:35:36.382560Z","epoch_age_seconds":115843,"freshness":"FRESH","line1":"1 62960U 25029N   26144.64972665  .00022959  00000+0  78472-3 0  9990","line2":"2 62960  53.1609 239.8971 0000719  82.6677 277.4405 15.30206731 72928","mean_motion":15.30206731,"eccentricity":7.19e-5,"inclination_deg":53.1609,"raan_deg":239.8971,"arg_perigee_deg":82.6677,"mean_anomaly_deg":277.4405,"bstar":0.00078472,"rev_number":7292,"period_min":94.104931760361,"perigee_km":474.70221737148,"apogee_km":475.68772650905,"semimajor_km":6853.3319719403,"source":"CELESTRAK","updated_at":"2026-05-25T13:38:19.826784Z"}}}